Westerly, RI

9:56 AM EDT on July 25, 2017 (GMT -0400)
Westerly State

Weather History for KWST - January, 2014

Change the Weather History Date:

Tuesday, January 7, 2014

  Actual Average (KGON) Record (KGON)
Temperature  
Mean Temperature 19 °F -  
Max Temperature 30 °F 38 °F 55 °F (2012)
Min Temperature 8 °F 21 °F 5 °F (2015)
Degree Days  
Heating Degree Days 46    
Moisture  
Dew Point -2 °F    
Average Humidity 50    
Maximum Humidity 80    
Minimum Humidity 32    
Precipitation  
Precipitation 0.00 in - - ()
Sea Level Pressure  
Sea Level Pressure 29.96 in    
Wind  
Wind Speed 13 mph (West)    
Max Wind Speed 18 mph    
Max Gust Speed 29 mph    
Visibility 8 miles    
Events Snow    
Averages and records for this station are not official NWS values.
T = Trace of Precipitation, MM = Missing Value Source: NWS Daily Summary

Daily Weather History Graph

Daily Weather History Graph

Search for Another Location

Airport or City:

Trip Planner

Search our weather history database for the weather conditions in past years. The results will help you decide how hot, cold, wet, or windy it might be!

Date:

Astronomy

Jan. 07, 2014 Rise Set
Actual Time 7:13 AM EST 4:34 PM EST
Civil Twilight 6:42 AM EST 5:05 PM EST
Nautical Twilight 6:07 AM EST 5:39 PM EST
Astronomical Twilight 5:34 AM EST 6:12 PM EST
Moon 10:55 AM EST (1/7) No Moon Set
Length of Visible Light 10h 22m
Length of Day
9h 21m
Waxing Crescent, 45% of the Moon is Illuminated
Jan 7
Waxing Crescent
Jan 7
First Quarter
Jan 15
Full
Jan 24
Last Quarter
Jan 30
New

Hourly Weather History & Observations

Time (EST) Temp. Windchill Dew Point Humidity Pressure Visibility Wind Dir Wind Speed Gust Speed Precip Events Conditions
12:53 AM 30.9 °F 19.4 °F 21.0 °F 67% 29.57 in 10.0 mi WSW 17.3 mph 28.8 mph 0.00 in   Overcast
1:53 AM 28.9 °F 16.5 °F 17.1 °F 61% 29.60 in 10.0 mi WSW 18.4 mph 28.8 mph N/A   Overcast
2:53 AM 25.0 °F 13.1 °F 10.0 °F 53% 29.64 in 10.0 mi West 13.8 mph 21.9 mph N/A   Mostly Cloudy
3:32 AM 19.9 °F 7.3 °F 12.9 °F 74% 29.68 in 2.5 mi WNW 12.7 mph 24.2 mph 0.00 in Snow Light Snow
3:53 AM 19.0 °F 7.5 °F 12.0 °F 74% 29.71 in 4.0 mi WNW 10.4 mph 21.9 mph 0.00 in Snow Light Snow
4:14 AM 18.0 °F 3.6 °F 7.0 °F 62% 29.72 in 9.0 mi WNW 15.0 mph 21.9 mph 0.00 in   Overcast
4:53 AM 17.1 °F 4.3 °F 3.9 °F 56% 29.75 in 10.0 mi WNW 11.5 mph 23.0 mph 0.00 in   Overcast
5:19 AM 15.1 °F 3.3 °F 7.0 °F 70% 29.77 in 2.0 mi WNW 9.2 mph 23.0 mph 0.00 in Snow Light Snow
5:26 AM 14.0 °F 0.5 °F 9.0 °F 80% 29.78 in 1.0 mi West 11.5 mph 19.6 mph 0.00 in Snow Light Snow
5:51 AM 12.2 °F -1.0 °F 3.2 °F 67% 29.82 in 3.0 mi NW 10.4 mph 26.5 mph 0.00 in Snow Light Snow
5:53 AM 12.9 °F -0.9 °F 3.9 °F 67% 29.82 in 5.0 mi NW 11.5 mph 26.5 mph 0.00 in Snow Light Snow
6:11 AM 12.0 °F -2.7 °F 1.0 °F 61% 29.83 in 10.0 mi WNW 12.7 mph 23.0 mph 0.00 in   Overcast
6:53 AM 10.9 °F -3.4 °F -5.1 °F 49% 29.89 in 10.0 mi West 11.5 mph 23.0 mph 0.00 in   Clear
7:53 AM 10.0 °F -5.2 °F -7.1 °F 46% 29.95 in 10.0 mi West 12.7 mph 24.2 mph N/A   Clear
8:53 AM 10.0 °F -3.7 °F -8.0 °F 44% 30.01 in 10.0 mi West 10.4 mph 20.7 mph N/A   Clear
9:53 AM 12.0 °F 0.5 °F -7.1 °F 42% 30.04 in 10.0 mi West 8.1 mph 17.3 mph N/A   Clear
10:53 AM 12.9 °F 0.7 °F -9.0 °F 37% 30.04 in 10.0 mi West 9.2 mph 23.0 mph N/A   Clear
11:53 AM 14.0 °F -0.2 °F -8.0 °F 37% 30.03 in 10.0 mi West 12.7 mph 18.4 mph N/A   Clear
12:53 PM 14.0 °F - -8.0 °F 37% 30.02 in 10.0 mi North - - N/A   Clear
1:53 PM 12.9 °F -1.6 °F -9.9 °F 35% 30.06 in 10.0 mi West 12.7 mph 23.0 mph N/A   Clear
2:53 PM 12.9 °F 1.6 °F -11.0 °F 34% 30.09 in 10.0 mi West 8.1 mph 18.4 mph N/A   Clear
3:53 PM 12.0 °F -2.7 °F -13.0 °F 32% 30.12 in 10.0 mi WNW 12.7 mph 24.2 mph N/A   Clear
4:53 PM 10.9 °F -4.1 °F -13.0 °F 33% 30.15 in 10.0 mi West 12.7 mph 20.7 mph N/A   Clear
5:53 PM 10.0 °F 0.4 °F -11.0 °F 38% 30.19 in 10.0 mi West 5.8 mph - N/A   Clear
6:53 PM 10.0 °F -0.9 °F -11.9 °F 37% 30.22 in 10.0 mi Variable 6.9 mph 19.6 mph N/A   Clear
7:53 PM 9.0 °F -2.2 °F -9.9 °F 42% 30.24 in 10.0 mi West 6.9 mph - N/A   Clear
8:53 PM 9.0 °F -2.2 °F -11.0 °F 40% 30.27 in 10.0 mi West 6.9 mph 17.3 mph N/A   Clear
9:53 PM 8.1 °F -4.3 °F -11.0 °F 42% 30.30 in 10.0 mi West 8.1 mph - N/A   Clear
10:53 PM 8.1 °F -7.7 °F -9.9 °F 44% 30.31 in 10.0 mi West 12.7 mph 19.6 mph N/A   Clear
11:53 PM 8.1 °F -6.2 °F -9.0 °F 46% 30.32 in 10.0 mi WSW 10.4 mph 18.4 mph N/A   Clear